sat.trackr.live / text

‹ back to catalog

STARLINK-34509

NORAD 64484 · 2025-133N

PAYLOAD ACTIVE UNKNOWN

§ Identity

Operator
Country
US
Launch date
2025-06-23
Launch site
AFETR
Launch vehicle
Mass (kg)
RCS (m²)

Purposes: comms

External: N2YO · Heavens-Above · Gunter

§ Orbital elements

Epoch: 2026-09-20T19:03:20.094048Z

Period
93.85 min
Inclination
53.1626°
Eccentricity
0.0001022
Mean motion
15.34397949 rev/d
Perigee alt
462.0 km
Apogee alt
463.4 km
Semi-major
6,840.8 km
B*
2.3542e-4
RAAN
288.1565°
Arg perigee
75.3153°
Mean anomaly
284.7963°
Rev number
7,109

§ Raw data

STARLINK-345091 64484U 25133N   26263.79398257  .00007586  00000+0  23542-3 0  99932 64484  53.1626 288.1565 0001022  75.3153 284.7963 15.34397949 71095

JSON: /api/v1/satellites/64484 · /tle

For live sub-satellite position, see the globe view (requires WebGL).

§ Visibility from observer

Set your observer location to see the next 7 days of passes ≥ 10°. The values pass through the URL so the page stays shareable.

No JS? Fill the form by hand. The geolocation button needs JavaScript.